Regional Weather Roundup
Issued by NWS

Home | Current Version | Previous Version | Text Only | Print | Product List | Glossary Off
Versions: 1 2 3 4 5 6 7 8 9 10 11 12 13 14 15 16 17 18 19 20 21 22 23 24 25 26 27 28 29 30 31 32 33 34 35 36 37 38 39 40 41 42 43 44 45 46 47 48 49 50

000
ASUS43 KDTX 051701
RWRMI
MICHIGAN HOURLY REGIONAL WEATHER ROUNDUP
NATIONAL WEATHER SERVICE DETROIT/PONTIAC MI
100 PM EDT TUE MAY 05 2015

NOTE: "FAIR" INDICATES FEW OR NO CLOUDS BELOW 12,000 FEET WITH NO
SIGNIFICANT WEATHER AND/OR OBSTRUCTION TO VISIBILITY.

MIZ047>049-052>055-059>063-066>070-074>076-081>083-051800-
SOUTHEAST LOWER MICHIGAN

CITY           SKY/WX    TMP DP  RH WIND       PRES   REMARKS
ADRIAN         LGT RAIN  53  47  79 E8        30.28S
ALMA           LGT RAIN  52  46  78 E6        30.31F
ANN ARBOR      CLOUDY    52  47  83 NE12      30.28F
BAD AXE        LGT RAIN  50  41  70 N3        30.34F
CARO           CLOUDY    52  45  78 CALM      30.32F
DETROIT CITY   LGT RAIN  50  47  89 NE12      30.30F
DETROIT        CLOUDY    53  47  79 N10       30.29S
FLINT          LGT RAIN  51  46  83 NE10      30.32F
GROSSE ILE     LGT RAIN  52  46  82 NE10      30.26F
HILLSDALE      LGT RAIN  52  50  91 E5        30.27S
HOWELL         LGT RAIN  48  44  86 NE7       30.31R

CITY           SKY/WX    TMP DP  RH WIND       PRES   REMARKS
JACKSON        CLOUDY    50  46  86 NE7       30.29F
LAMBERTVILLE   LGT RAIN  54  48  82 NE8       30.28R
LANSING        LGT RAIN  50  44  80 E8        30.31S
LAPEER         RAIN      48  46  90 CALM      30.33F
MASON          LGT RAIN  49  43  81 E10       30.30F
MONROE         CLOUDY    54  46  76 NE5       30.26F
MT. CLEMENS    LGT RAIN  50  47  90 N9        30.29F FOG
PONTIAC        LGT RAIN  49  46  90 NE8       30.29F
PORT HOPE        N/A     43  38  82 NW3       30.33S
PORT HURON     DRIZZLE   48  45  87 N3        30.32F
TRI CITIES     CLOUDY    56  45  66 E7        30.33F
MIDLAND        FAIR      55  40  56 NE5       30.32F
TROY           LGT RAIN  50  48  92 NE8       30.31F
SAGINAW HB     CLOUDY    54  43  66 E5        30.31F
$$
MIZ043>046-050>051-056>058-064>065-071>073-077>080-051800-
SOUTHWEST LOWER MICHIGAN

CITY           SKY/WX    TMP DP  RH WIND       PRES   REMARKS
BATTLE CREEK   CLOUDY    50  46  86 E8        30.28F
BENTON HARBOR  CLOUDY    54  53  97 E9        30.25R
BIG RAPIDS     CLOUDY    55  38  51 E6        30.31S
COLDWATER      LGT RAIN  52  49  89 E6        30.27S
FREMONT        LGT RAIN  48  46  90 SE9       30.31R
HOLLAND        CLOUDY    51  44  77 E14       30.29F
GRAND RAPIDS   LGT RAIN  50  44  80 NE13      30.30R
IONIA          RAIN      50  44  81 E9        30.31R
KALAMAZOO      LGT RAIN  51  47  86 VRB6      30.27F
LUDINGTON      CLOUDY    61  25  25 E12       30.31R
MARSHALL       LGT RAIN  49  46  90 E6        30.29S
MOUNT PLEASANT CLOUDY    54  40  60 NE5       30.31F
MUSKEGON       LGT RAIN  51  44  77 E12       30.31R
SOUTH HAVEN    LGT RAIN  53  49  88 E10       30.26R
$$
MIZ016>042-051800-
NORTHERN LOWER MICHIGAN

CITY           SKY/WX    TMP DP  RH WIND       PRES   REMARKS
ALPENA         CLOUDY    63  41  44 N10       30.34F
BEAVER ISLAND  SUNNY     64  26  23 E8        30.35S
BELLAIRE       PTSUNNY   65  25  21 NE9       30.33F
CADILLAC       CLOUDY    59  30  33 NE9       30.31F
CHARLEVOIX     MOSUNNY   52  39  62 N7        30.37S
FRANKFORT      PTSUNNY   64  18  17 E3        30.32S
GAYLORD        PTSUNNY   61  24  24 NE8G17    30.33F
GRAYLING       CLOUDY    60  29  30 NE5       30.34F
HARBOR SPRINGS MOSUNNY   65  25  21 E13G18    30.34S
MANISTEE       CLOUDY    61  30  31 E12       30.32S
OSCODA         CLOUDY    53  42  66 E10       30.33S
PELLSTON       SUNNY     67  23  19 E13G22    30.34F
ROGERS CITY    PTSUNNY   53  39  59 NE3       30.36S
TRAVERSE CITY  CLOUDY    54  38  54 VRB3      30.33F
$$
MIZ007>008-015-051800-
EASTERN UPPER MICHIGAN

CITY           SKY/WX    TMP DP  RH WIND       PRES   REMARKS
KINROSS        SUNNY     64  27  24 NE5       30.33F
MACKINAC ISLAN SUNNY     61  27  27 S8        30.34F
NEWBERRY       SUNNY     65  30  27 SE3       30.33F
S. S. MARIE    SUNNY     64  32  30 W8        30.33F
MUNISING         N/A     50  33  52 NW5       30.32F
$$
MIZ004>006-011>014-085-051800-
CENTRAL UPPER MICHIGAN

CITY           SKY/WX    TMP DP  RH WIND       PRES   REMARKS
MANISTIQUE     SUNNY     56  35  44 S6        30.35S
ESCANABA       SUNNY     57  36  44 SE6       30.34F
MENOMINEE      SUNNY     57  36  44 E9        30.34S
SAWYER-GWINN   SUNNY     64  28  25 S3        30.32F
$$
MIZ001>003-009>011-084-051800-
WESTERN UPPER MICHIGAN

CITY           SKY/WX    TMP DP  RH WIND       PRES   REMARKS
IRON MOUNTAIN  SUNNY     65  28  24 S6        30.30F
HOUGHTON       SUNNY     66  27  23 SE13      30.30F
COPPER HARBOR    N/A     51  34  52 CALM      30.31S
IRONWOOD       SUNNY     66  27  22 SE9G16    30.25F
$$

ABBREVIATIONS USED IN REMARKS
   TC - TEMPERATURE IN CELSIUS
  WCI - WIND CHILL INDEX
   HX - HEAT INDEX
  VSB - VISIBILITY




USA.gov is the U.S. government's official web portal to all federal, state and local government web resources and services.